1338163230755,4.11929
1338163290755,4.12728
1338163350755,4.10046
1338163410755,4.04797
1338163470755,4.07721
1338163530755,4.07211
1338163590755,4.08681
1338163650755,4.07068
1338163710755,4.12529
1338163770755,4.09850
1338163830755,4.07843
1338163890755,4.11533
1338163950755,4.08696
1338164010755,4.10076
1338164070755,4.08736
1338164130755,4.08929
1338164190755,4.12119
1338164250755,4.11668
1338164310755,4.10881
1338164370755,4.11373
1338164430755,4.08174
1338164490755,4.05739
1338164550755,4.10448
1338164610755,4.08613
1338164670755,4.07523
1338164730755,4.08819
1338164790755,4.10187
1338164850755,4.07762
1338164910755,4.13977
1338164970755,4.07435
1338165030755,4.08929
1338165090755,4.10209
1338165150755,4.10350
1338165210755,4.09886
1338165270755,4.12189
1338165330755,4.11562
1338165390755,4.09130
1338165450755,4.11033
1338165510755,4.08733
1338165570755,4.11297
1338165630755,4.10201
1338165690755,4.06987
1338165750755,4.08712
1338165810755,4.09150
1338165870755,4.06681
1338165930755,4.08591
1338165990755,4.12612
1338166050755,4.11258
1338166110755,4.10564
1338166170755,4.08506
1338166230755,4.08093
1338166290755,4.10423
1338166350755,4.10910
1338166410755,4.08476
1338166470755,4.10966
1338166530755,4.06129
1338166590755,4.10537
1338166650755,4.04744
1338166710755,4.06220
1338166770755,4.10831
1338166830766,4.09916
1338166890766,4.06119
1338166950766,4.05868
1338167010766,4.08104
1338167070766,4.09113
1338167130766,4.10681
1338167190766,4.08712
1338167250766,4.07193
1338167310766,4.06770
1338167370766,4.11864
1338167430766,4.10725
1338167490766,4.15255
1338168030766,4.11515
1338168090766,4.10541
1338168150766,4.12418
1338168210766,4.10825
1338168270766,4.12172
1338168330766,4.08872
1338168390766,4.10596
1338168450766,4.09440
1338168510766,4.06726
1338168570766,4.09483
1338168630766,4.14005
1338168690766,4.09317
1338168750766,4.10671
1338168810766,4.10350
1338168870766,4.10946
1338168930766,4.09213
1338168990766,4.10890
1338169050766,4.13877
1338169110766,4.11820
1338169170766,4.10744
1338169230766,4.13661
1338169290766,4.07387
1338169350766,4.08514
1338169410766,4.11325
1338169470766,4.09993
1338169530766,4.13013
1338169590766,4.12930
1338169650766,4.09731
1338169710766,4.11638
1338169770766,4.11279
1338169830766,4.07748
1338169890766,4.12005
1338169950766,4.13669
1338170010766,4.09283
1338170070766,4.13496
1338170130766,4.09977
1338170190766,4.09863
1338170250766,4.12924
1338170310766,4.11069
1338170370766,4.13066
1338170430777,4.10858
1338170490777,4.10935
1338170550777,4.15034
1338170610777,4.11602
1338170670777,4.14453
1338170730777,4.10413
1338170790777,4.09975
1338170850777,4.10430
1338170910777,4.04233
1338170970777,4.08283
1338171030777,4.13975
1338171090777,4.10614
1338171150777,4.06109
1338171210777,4.12111
1338171270777,4.08538
1338171330777,4.10775
1338171390777,4.09813
1338171450777,4.11127
1338171510777,4.12383
1338171570777,4.07014
1338171630777,4.05877
1338171690777,4.07440
1338171750777,4.12546
1338171810777,4.10220
1338171870777,4.08133
1338171930777,4.09418
1338171990777,4.12647
1338172050777,4.09193
1338172110777,4.11112
1338172170777,4.12069
1338172230777,4.07286
1338172290777,4.10690
1338172350777,4.10025
1338172410777,4.09280
1338172470777,4.10878
1338172530777,4.08934
1338172590777,4.08899
1338172650777,4.11324
1338172710777,4.06607
1338172770777,4.08073
1338172830777,4.08874
1338172890777,4.12197
1338172950777,4.07802
1338173010777,4.11366
1338173070777,4.07061
1338173130777,4.07628
1338173190777,4.08840
1338173250777,4.07864
1338173310777,4.09687
1338173370777,4.06608
1338173430777,4.09549
1338173490777,4.04759
1338173550777,4.10389
1338173610777,4.08386
1338173670777,4.08902
1338173730777,4.10579
1338173790777,4.08781
1338173850777,4.06974
1338173910777,4.07778
1338173970777,4.05932
1338174030787,4.06055
1338174090787,4.09774
1338174150787,4.05382
1338174210787,4.07560
1338174270787,4.09740
1338174330787,4.11258
1338174390787,4.08785
1338174450787,4.07356
1338174510787,4.08713
1338174570787,4.06959
1338174630787,4.09244
1338174690787,4.09151
1338174750787,4.07650
1338174810787,4.08802
1338174870787,4.07297
1338174930787,4.07436
1338174990787,4.08555
1338175050787,4.05951
1338175110787,4.08320
1338175170787,4.08512
1338175230787,4.08791
1338175290787,4.07686
1338175350787,4.05369
1338175410787,4.03081
1338175470787,4.04117
1338175530787,4.06284
1338175590787,4.05134
1338175650787,4.04645
1338175710787,4.08227
1338175770787,4.08005
1338175830787,4.06824
1338175890787,4.07872
1338175950787,4.07169
1338176010787,4.06321
1338176070787,4.05023
1338176130787,4.08726
1338176190787,4.07162
1338176250787,4.05964
1338176310787,4.07177
1338176370787,4.07668
1338176430787,4.08571
1338176490787,4.08337
1338176550787,4.10391
1338176610787,4.09712
1338176670787,4.06018
1338176730787,4.06570
1338176790787,4.08118
1338176850787,4.07745
1338176910787,4.14842
1338176970787,4.06096
1338177030787,4.06151
1338177090787,4.07526
1338177150787,4.09024
1338177210787,4.07157
1338177270787,4.09514
1338177330787,4.04873
1338177390787,4.07101
1338177450787,4.05290
1338177510787,4.10531
1338177570787,4.09465
1338177630797,4.09572
1338177690797,4.08530
1338177750797,4.06176
1338177810797,4.09027
1338177870797,4.10453
1338177930797,4.09262
1338177990797,4.07260
1338178050797,4.09058
1338178110797,4.08527
1338178170797,4.06917
1338178230797,4.07620
1338178290797,4.05713
1338178350797,4.06491
1338178410797,4.09238
1338178470797,4.08006
1338178530797,4.04774
1338178590797,4.08969
1338178650797,4.04004
1338178710797,4.04590
1338178770797,4.00640
1338178830797,4.06319
1338178890797,4.06689
1338178950797,4.03534
1338179010797,4.04484
1338179070797,4.04484
1338179130797,4.01990
1338179190797,4.03106
1338179250797,4.02527
1338179310797,4.04805
1338179370797,4.03812
1338179430797,4.05803
1338179490797,4.05993
1338179550797,4.04725
1338179610797,4.05261
1338179670797,4.08645
1338179730797,4.07493
1338179790797,4.08850
1338179850797,4.06422
1338179910797,4.08875
1338179970797,4.05098
1338180030797,4.06166
1338180090797,4.08748
1338180150797,4.06927
1338180210797,4.07208
1338180270797,4.03861
1338180330797,4.05636
1338180390797,4.04723
1338180450797,4.07615
1338180510797,4.05757
1338180570797,4.02900
1338180630797,4.04014
1338180690797,4.04435
1338180750797,4.07369
1338180810797,4.08419
1338180870797,4.08268
1338180930797,4.08269
1338180990797,4.08194
1338181050797,4.08123
1338181110797,4.10575
1338181170797,4.07171
1338181230807,4.08074
1338181290807,4.07347
1338181350807,4.06481
1338181410807,4.10752
1338181470807,4.09784
1338181530807,4.10550
1338181590807,4.08133
1338181650807,4.07401
1338181710807,4.04440
1338181770807,4.06073
1338181830807,4.06199
1338181890807,4.04099
1338181950807,4.07484
1338182010807,4.06758
1338182070807,4.07230
1338182130807,4.04759
1338182190807,4.06769
1338182250807,4.04742
1338182310807,4.04599
1338182370807,4.10417
1338182430807,4.05578
1338182490807,4.10868
1338182550807,4.06154
1338182610807,4.07276
1338182670807,4.02973
1338182730807,4.14040
1338182790807,4.07081
1338182850807,4.06186
1338182910807,4.04852
1338182970807,4.09855
1338183030807,4.08205
1338183090807,4.10911
1338183150807,4.08059
1338183210807,4.05537
1338183270807,4.09569
1338183330807,4.11292
1338183390807,4.08521
1338183450807,4.12154
1338183510807,4.08790
1338183570807,4.09146
1338183630807,4.10507
1338183690807,4.08829
1338183750807,4.06828
1338183810807,4.06321
1338183870807,4.06210
1338183930807,4.08602
1338183990807,4.05847
1338184050807,4.08251
1338184110807,4.06471
1338184170807,4.06220
1338184230807,4.04644
1338184290807,4.06182
1338184350807,4.05843
1338184410807,4.07013
1338184470807,4.06385
1338184530807,4.06381
1338184590807,4.06466
1338184650807,4.05013
1338184710807,4.02725
1338184770807,4.03740
1338184830817,4.01767
1338184890817,4.06851
1338184950817,4.05764
1338185010817,4.08416
1338185070817,4.03467
1338185130817,4.04408
1338185190817,4.07983
1338185250817,4.05665
1338185310817,4.01602
1338185370817,4.01675
1338185430817,3.97387
1338185490817,4.04030
1338185550817,4.01910
1338185610817,4.01098
1338185670817,4.02689
1338185730817,4.01315
1338185790817,4.00119
1338185850817,4.05670
1338185910817,4.04926
1338185970817,4.09087
1338186030817,4.01455
1338186090817,4.02089
1338186150817,4.02824
1338186210817,4.04555
1338186270817,4.04849
1338186330817,4.05090
1338186390817,4.02515
1338186450817,4.02326
1338186510817,4.04853
1338186570817,4.02684
1338186630817,4.00718
1338186690817,4.04923
1338186750817,4.04262
1338186810817,4.02973
1338186870817,4.05039
1338186930817,4.04083
1338186990817,4.04948
1338187050817,4.00770
1338187110817,4.07161
1338187170817,4.01529
1338187230817,4.03204
1338187290817,4.05442
1338187350817,4.02242
1338187410817,4.06216
1338187470817,4.04624
1338187530817,4.01818
1338187590817,4.02460
1338187650817,4.04923
1338187710817,4.05016
1338187770817,4.03674
1338187830817,4.04575
1338187890817,4.03587
1338187950817,4.04897
1338188010817,4.06736
1338188070817,4.04205
1338188130817,4.04382
1338188190817,4.06007
1338188250817,4.02122
1338188310817,4.05402
1338188370817,4.01927
1338188430826,4.04060
1338188490826,4.01635
1338188550826,3.98629
1338188610826,4.03822
1338188670826,4.01777
1338188730826,4.02071
1338188790826,4.03010
1338188850826,3.98938
1338188910826,4.02822
1338188970826,3.96312
1338189030826,4.00691
1338189090826,3.98945
1338189150826,3.99561
1338189210826,3.97599
1338189270826,4.01408
1338189330826,4.00868
1338189390826,4.03682
1338189450826,4.03089
1338189510826,3.99220
1338189570826,4.00185
1338189630826,4.03174
1338189690826,4.04747
1338189750826,4.01800
1338189810826,4.01733
1338189870826,3.98706
1338189930826,4.00544
1338189990826,4.00412
1338190050826,4.00459
1338190110826,3.99900
1338190170826,4.05351
1338190230826,4.02618
1338190290826,4.01167
1338190350826,4.00903
1338190410826,4.00785
1338190470826,3.99492
1338190530826,4.02015
1338190590826,4.01180
1338190650826,4.00750
1338190710826,4.01041
1338190770826,4.03337
1338190830826,4.01675
1338190890826,4.01230
1338190950826,4.00700
1338191010826,4.01924
1338191070826,4.03733
1338191130826,4.01068
1338191190826,4.04023
1338191250826,4.02221
1338191310826,4.02878
1338191370826,4.04021
1338191430826,3.99797
1338191490826,4.01201
1338191550826,3.95967
1338191610826,4.02020
1338191670826,3.98783
1338191730826,4.02886
1338191790826,3.99375
1338191850826,4.02428
1338191910826,4.01146
1338191970826,3.99599
1338192030836,4.05352
1338192090836,4.03315
1338192150836,4.00239
1338192210836,4.03399
1338192270836,4.03994
1338192330836,4.07707
1338192390836,4.02219
1338192450836,4.04116
1338192510836,4.03307
1338192570836,4.01413
1338192630836,4.03004
1338192690836,4.00104
1338192750836,4.01914
1338192810836,4.03111
1338192870836,4.01204
1338192930836,4.01840
1338192990836,4.01050
1338193050836,3.96583
1338193110836,3.97619
1338193170836,4.00642
1338193230836,3.99759
1338193290836,4.00588
1338193350836,3.99525
1338193410836,4.00981
1338193470836,4.01108
1338193530836,4.02002
1338193590836,4.01719
1338193650836,4.01533
1338193710836,4.01003
1338193770836,3.99633
1338193830836,3.99924
1338193890836,4.00121
1338193950836,4.05133
1338194010836,3.98612
1338194070836,3.99817
1338194130836,4.03017
1338194190836,4.00930
1338194250836,4.02727
1338194310836,4.01034
1338194370836,4.01138
1338194430836,4.02705
1338194490836,4.04484
1338194550836,4.07643
1338194610836,4.00643
1338194670836,4.02163
1338194730836,3.98570
1338194790836,3.97580
1338194850836,4.00834
1338194910836,4.02089
1338194970836,3.99929
1338195030836,4.01031
1338195090836,4.02407
1338195150836,4.02808
1338195210836,3.99123
1338195270836,4.00197
1338195330836,4.03036
1338195390836,4.01174
1338195450836,4.02975
1338195510836,4.00381
1338195570836,3.99595
1338195630846,3.98652
1338195690846,3.96942
1338195750846,4.02578
1338195810846,4.03264
1338195870846,4.02134
1338195930846,4.03580
1338195990846,4.01219
1338196050846,4.03237
1338196110846,4.02129
1338196170846,3.99311
1338196230846,3.99609
1338196290846,4.00491
1338196350846,3.99089
1338196410846,3.96975
1338196470846,3.97669
1338196530846,3.97355
1338196590846,4.02073
1338196650846,3.99418
1338196710846,3.98171
1338196770846,3.97455
1338196830846,4.00741
1338196890846,4.02950
1338196950846,3.96225
1338197010846,3.99841
1338197070846,4.05112
1338197130846,4.00828
1338197190846,4.03100
1338197250846,3.98590
1338197310846,3.98025
1338197370846,3.99909
1338197430846,4.00124
1338197490846,3.99156
1338197550846,4.00322
1338197610846,4.00993
1338197670846,3.99187
1338197730846,4.00096
1338197790846,4.01582
1338197850846,3.98868
1338197910846,4.00351
1338197970846,3.96460
1338198030846,3.96088
1338198090846,3.99120
1338198150846,4.03154
1338198210846,4.00185
1338198270846,4.00226
1338198330846,4.00791
1338198390846,4.04299
1338198450846,4.01415
1338198510846,3.96796
1338198570846,4.00181
1338198630846,4.01403
1338198690846,4.04378
1338198750846,4.01048
1338198810846,4.02639
1338198870846,4.01471
1338198930846,3.99865
1338198990846,3.98790
1338199050846,4.01844
1338199110846,4.02368
1338199170846,4.00976
1338199230855,4.00924
1338199290855,4.02938
1338199350855,4.03234
1338199410855,4.01863
1338199470855,3.98998
1338199530855,4.05235
1338199590855,4.01839
1338199650855,4.05882
1338199710855,4.04039
1338199770855,4.03930
1338199830855,4.00862
1338199890855,4.02624
1338199950855,4.00584
1338200010855,4.02791
1338200070855,4.01776
1338200130855,4.03146
1338200190855,4.01374
1338200250855,4.01602
1338200310855,4.01516
1338200370855,4.02640
1338200430855,4.05110
1338200490855,4.03619
1338200550855,4.02733
1338200610855,3.99935
1338200670855,3.95325
1338200730855,4.00923
1338200790855,4.01692
1338200850855,4.01631
1338200910855,4.03933
1338200970855,4.03726
1338201030855,4.01362
1338201090855,4.01936
1338201150855,4.00275
1338201210855,4.01490
1338201270855,4.00853
1338201330855,4.02031
1338201390855,4.02950
1338201450855,4.03124
1338201510855,4.02660
1338201570855,4.00636
1338201630855,4.00361
1338201690855,4.02888
1338201750855,4.02037
1338201810855,4.02239
1338201870855,3.99206
1338201930855,4.03632
1338201990855,4.01701
1338202050855,4.00625
1338202110855,3.98575
1338202170855,4.01552
1338202230855,4.06193
1338202290855,3.99023
1338202350855,3.99590
1338202410855,3.99766
1338202470855,4.01520
1338202530855,4.02502
1338202590855,4.00931
1338202650855,4.01733
1338202710855,4.00742
1338202770855,4.02466
1338202830865,4.00750
1338202890865,4.03275
1338202950865,3.99934
1338203010865,4.01654
1338203070865,3.99668
1338203130865,4.02476
1338203190865,3.99892
1338203250865,4.05033
1338203310865,4.01390
1338203370865,4.02183
1338203430865,4.03328
1338203490865,3.97364
1338203550865,4.02585
1338203610865,4.01896
1338203670865,3.99397
1338203730865,4.04742
1338203790865,4.03167
1338203850865,3.98690
1338203910865,4.00479
1338203970865,4.03323
1338204030865,4.04328
1338204090865,3.99937
1338204150865,4.03400
1338204210865,4.05774
1338204270865,4.01710
1338204330865,4.02756
1338204390865,4.02944
1338204450865,4.01456
1338204510865,4.00519
1338204570865,4.01471
1338204630865,4.00835
1338204690865,4.01911
1338204750865,3.98977
1338204810865,4.01911
1338204870865,4.05083
1338204930865,4.00030
1338204990865,4.03607
1338205050865,3.97258
1338205110865,4.00580
1338205170865,4.02933
1338205230865,4.00579
1338205290865,3.99346
1338205350865,4.02322
1338205410865,4.03471
1338205470865,4.02163
1338205530865,4.08325
1338205590865,4.08556
1338205650865,4.07772
1338205710865,4.09447
1338205770865,4.04403
1338205830865,4.03431
1338205890865,4.03286
1338205950865,4.05859
1338206010865,4.02604
1338206070865,4.05085
1338206130865,4.02987
1338206190865,4.04957
1338206250865,4.01238
1338206310865,4.02856
1338206370865,3.99942
1338206430874,4.03978
1338206490874,4.00971
1338206550874,4.03579
1338206610874,4.28319
1338206670874,3.97066
1338206730874,3.99435
1338206790874,3.99124
1338206850874,4.03537
1338206910874,4.00211
1338206970874,4.00800
1338207030874,4.01893
1338207090874,3.99753
1338207150874,4.02203
1338207210874,3.98631
1338207270874,3.99550
1338207330874,4.01298
1338207390874,3.98849
1338207450874,4.00859
1338207510874,4.02959
1338207570874,4.00532
1338207630874,4.02342
1338207690874,3.98505
1338207750874,3.92399
1338207810874,3.98232
1338207870874,4.01314
1338207930874,4.01203
1338207990874,4.02712
1338208050874,4.04665
1338208110874,4.01650
1338208170874,4.02274
1338208230874,4.02441
1338208290874,4.00970
1338208350874,4.02103
1338208410874,3.99059
1338208470874,4.02330
1338208530874,3.99948
1338208590874,4.05933
1338208650874,4.05036
1338208710874,3.98101
1338208770874,4.03265
1338208830874,4.01500
1338208890874,4.04652
1338208950874,4.10046
1338209010874,4.07068
1338209070874,4.08366
1338209130874,4.06827
1338209190874,4.06152
1338209250874,4.04299
1338209310874,4.04841
1338209370874,4.06396
1338209430874,4.04865
1338209490874,4.05028
1338209550874,4.05691
1338209610874,4.06525
1338209670874,4.04001
1338209730874,4.07188
1338209790874,4.03138
1338209850874,4.08036
1338209910874,4.04778
1338209970874,4.09314
1338210030884,4.05344
1338210090884,4.02318
1338210150884,4.02917
1338210210884,4.01610
1338210270884,4.02222
1338210330884,4.06126
1338210390884,4.00043
1338210450884,4.01241
1338210510884,4.02688
1338210570884,4.01552
1338210630884,4.03505
1338210690884,4.02524
1338210750884,3.99872
1338210810884,4.00841
1338210870884,3.99685
1338210930884,4.02645
1338210990884,3.97256
1338211050884,4.02314
1338211110884,4.02674
1338211170884,4.01388
1338211230884,4.00738
1338211290884,4.02150
1338211350884,4.00192
1338211410884,3.98213
1338211470884,3.99598
1338211530884,4.02474
1338211590884,3.98571
1338211650884,4.02389
1338211710884,4.05097
1338211770884,4.00460
1338211830884,4.01911
1338211890884,4.03439
1338211950884,4.02753
1338212010884,4.04720
1338212070884,3.99670
1338212130884,4.02466
1338212190884,3.98598
1338212250884,4.01643
1338212310884,4.03360
1338212370884,4.02149
1338212430884,4.07108
1338212490884,4.01668
1338212550884,4.05311
1338212610884,3.99437
1338212670884,4.00439
1338212730884,4.03547
1338212790884,4.00248
1338212850884,4.07427
1338212910884,4.02106
1338212970884,3.97468
1338213030884,4.00276
1338213090884,3.97543
1338213150884,4.02310
1338213210884,4.03481
1338213270884,4.04449
1338213330884,4.02473
1338213390884,4.04312
1338213450884,4.00647
1338213510884,4.01653
1338213570884,4.00893
1338213630893,4.06790
1338213690893,4.01049
1338213750893,4.00330
1338213810893,4.04178
1338213870893,4.03450
1338213930893,4.03905
1338213990893,4.03674
1338214050893,4.02756
1338214110893,4.05386
1338214170893,4.03112
1338214230893,4.05274
1338214290893,4.07506
1338214350893,4.06898
1338214410893,4.08225
1338214470893,4.09994
1338214530893,4.08836
1338214590893,4.08661
1338214650893,4.07999
1338214710893,4.06181
1338214770893,4.11605
1338214830893,4.05456
1338214890893,4.06931
1338214950893,4.04215
1338215010893,4.08269
1338215070893,4.04812
1338215130893,4.09109
1338215190893,4.05925
1338215250893,4.06364
1338215310893,4.07254
1338215370893,4.03170
1338215430893,4.03865
1338215490893,4.02102
1338215550893,4.02772
1338215610893,4.03299
1338215670893,4.03780
1338215730893,4.05612
1338215790893,4.03874
1338215850893,4.03183
1338215910893,4.03392
1338215970893,4.02015
1338216030893,4.01655
1338216090893,4.04637
1338216150893,4.07121
1338216210893,4.01150
1338216270893,4.04651
1338216330893,4.04165
1338216390893,4.02810
1338216450893,4.04592
1338216510893,4.03603
1338216570893,4.02474
1338216630893,4.02542
1338216690893,4.03098
1338216750893,4.00263
1338216810893,4.01104
1338216870893,4.02558
1338216930893,4.05142
1338216990893,4.03283
1338217050893,4.04336
1338217110893,4.01583
1338217170893,4.04189
1338217230903,3.98884
1338217290903,4.05583
1338217350903,4.04423
1338217410903,4.11080
1338217470903,4.02368
1338217530903,4.02231
1338217590903,4.04038
1338217650903,4.01949
1338217710903,4.05328
1338217770903,4.03880
1338217830903,4.02579
1338217890903,4.02061
1338217950903,4.01226
1338218010903,4.05919
1338218070903,4.04155
1338218130903,4.03790
1338218190903,4.06665
1338218250903,4.03403
1338218310903,4.01155
1338218370903,4.00086
1338218430903,4.04131
1338218490903,4.03673
1338218550903,4.04889
1338218610903,4.06768
1338218670903,4.03593
1338218730903,4.04780
1338218790903,4.08681
1338218850903,4.05706
1338218910903,4.03390
1338218970903,4.03411
1338219030903,4.08082
1338219090903,4.06465
1338219150903,4.07759
1338219210903,4.06447
1338219270903,4.09248
1338219330903,4.07562
1338219390903,4.06845
1338219450903,4.06513
1338219510903,4.04912
1338219570903,4.03989
1338219630903,4.07357
1338219690903,4.05580
1338219750903,4.06510
1338219810903,4.04119
1338219870903,4.03021
1338219930903,4.05069
1338219990903,4.04176
1338220050903,4.03851
1338220110903,4.02276
1338220170903,4.07083
1338220230903,4.06414
1338220290903,4.02157
1338220350903,4.19839
1338220410903,4.01639
1338220470903,4.07939
1338220530903,4.02876
1338220590903,4.06046
1338220650903,4.09132
1338220710903,4.04985
1338220770903,4.05110
1338220830912,4.03990
1338220890912,4.01696
1338220950912,4.05655
1338221010912,4.06081
1338221070912,4.03833
1338221130912,4.05425
1338221190912,4.01086
1338221250912,4.02320
1338221310912,4.02716
1338221370912,4.03301
1338221430912,4.00886
1338221490912,4.00328
1338221550912,4.02849
1338221610912,4.03018
1338221670912,4.01779
1338221730912,4.04495
1338221790912,4.00755
1338221850912,4.04147
1338221910912,4.04633
1338221970912,4.02517
1338222030912,4.06207
1338222090912,4.05890
1338222150912,4.01316
1338222210912,4.03346
1338222270912,4.03694
1338222330912,4.01826
1338222390912,4.01069
1338222450912,4.04207
1338222510912,4.02551
1338222570912,4.06554
1338222630912,4.07093
1338222690912,4.02652
1338222750912,3.98390
1338222810912,4.00801
1338222870912,4.00100
1338222930912,4.05901
1338222990912,4.04145
1338223050912,4.02888
1338223110912,4.02696
1338223170912,4.03529
1338223230912,4.00020
1338223290912,4.02788
1338223350912,4.05359
1338223410912,4.02306
1338223470912,4.00273
1338223530912,4.02128
1338223590912,4.03207
1338223650912,4.00468
1338223710912,4.00893
1338223770912,4.02036
1338223830912,4.03362
1338223890912,4.03295
1338223950912,4.00037
1338224010912,4.01439
1338224070912,4.01126
1338224130912,4.01311
1338224190912,3.95397
1338224250912,4.01895
1338224310912,4.04770
1338224370912,4.01697
1338224430922,3.99247
1338224490922,3.99216
1338224550922,4.04516
1338224610922,4.04990
1338224670922,4.01902
1338224730922,4.00669
1338224790922,4.01429
1338224850922,4.01981
1338224910922,3.95823
1338224970922,3.98078
1338225030922,4.03338
1338225090922,4.02379
1338225150922,3.98679
1338225210922,4.03307
1338225270922,3.96743
1338225330922,4.01535
1338225390922,3.99406
1338225450922,3.98997
1338225510922,4.02926
1338225570922,4.02288
1338225630922,4.00567
1338225690922,4.02767
1338225750922,4.00281
1338225810922,3.99706
1338225870922,4.01803
1338225930922,3.99686
1338225990922,4.02213
1338226050922,3.96301
1338226110922,3.99991
1338226170922,4.00932
1338226230922,3.99032
1338226290922,3.96904
1338226350922,3.99259
1338226410922,4.02633
1338226470922,4.04524
1338226530922,4.03184
1338226590922,3.99910
1338226650922,4.03991
1338226710922,4.02228
1338226770922,4.00390
1338226830922,4.01027
1338226890922,4.01806
1338226950922,4.01768
1338227010922,4.01300
1338227070922,4.02313
1338227130922,4.01489
1338227190922,3.99621
1338227250922,3.99885
1338227310922,4.03118
1338227370922,4.03920
1338227430922,4.00762
1338227490922,4.04759
1338227550922,4.04007
1338227610922,4.00489
1338227670922,4.03139
1338227730922,4.00844
1338227790922,4.02481
1338227850922,4.11082
1338227910922,4.00480
1338227970922,4.04453
1338228030932,4.02092
1338228090932,4.03005
1338228150932,4.02763
1338228210932,4.02650
1338228270932,4.00931
1338228330932,4.03432
1338228390932,4.01006
1338228450932,3.99499
1338228510932,4.04475
1338228570932,4.05196
1338228630932,4.05014
1338228690932,3.99740
1338228750932,4.04454
1338228810932,4.00072
1338228870932,4.00542
1338228930932,4.03748
1338228990932,4.04408
1338229050932,4.02770